Theta_e
319 318 318 319 318 320 320 319 320 320 320 319 317 317 317 320 321 319 320 320 323 338 344 342 340 337 341 343 347 345 341 349 352 344 342 346 346 346 339 337 333 324 322 317 313 313 313 314 314 317 319 320 318 318 317 317 319 320 321 322 323 324 325 327 329 330 330 330 332 333 332 331 331 332 333 333 333 333 332 329 321 314 311 312 320 326 327 327 327 327 327 325 324 322 319 315 315
318 318 318 318 318 319 319 318 322 322 321 318 317 318 317 320 321 320 320 319 324 335 340 339 332 330 338 342 342 342 345 347 346 341 340 345 347 343 338 337 331 323 321 316 313 313 313 314 314 317 318 319 318 318 317 318 319 320 322 323 325 326 327 329 329 330 331 332 333 333 332 332 332 333 333 334 334 333 330 327 320 313 311 312 317 324 326 326 326 326 325 323 320 317 314 313 314
318 318 318 318 319 318 319 319 322 320 317 316 318 319 318 318 319 319 320 319 319 325 335 336 326 330 338 342 342 340 345 346 347 343 341 345 346 340 338 336 329 323 320 315 313 313 314 314 315 317 317 318 318 318 317 317 319 320 322 324 326 327 329 329 329 331 332 334 334 334 333 333 334 334 334 333 332 331 328 326 322 314 312 311 315 322 325 325 324 324 322 320 316 314 314 315 315
317 317 317 318 318 318 322 323 324 322 316 317 317 320 322 320 319 319 318 318 318 319 328 330 327 336 339 341 344 343 345 345 348 345 343 346 345 339 337 333 327 323 320 314 313 313 314 314 315 317 317 318 318 318 317 317 319 320 322 324 327 328 329 328 329 332 333 334 334 334 334 334 334 333 333 332 331 329 327 326 321 313 312 311 313 319 323 324 323 322 319 315 315 316 317 316 315
316 317 316 317 318 318 321 320 322 320 317 320 317 320 326 322 320 319 317 318 318 318 321 322 328 339 342 341 344 347 347 345 346 346 344 346 343 337 334 330 326 323 319 314 313 313 314 315 315 316 317 318 318 318 317 317 319 320 322 325 327 328 328 328 331 333 333 334 334 334 334 334 333 333 332 331 329 327 325 323 316 312 312 311 311 316 321 322 322 320 315 314 316 318 318 317 316
315 316 315 317 317 317 319 317 318 319 319 322 318 320 323 320 318 317 316 318 318 318 319 319 326 339 344 345 345 347 346 346 347 346 345 346 342 335 332 328 325 323 319 315 313 313 314 315 316 316 317 318 318 317 317 317 319 320 322 325 326 327 327 329 332 333 333 334 333 333 334 333 332 331 330 328 326 323 321 318 312 311 313 310 309 312 318 320 320 317 314 314 317 319 319 319 318
315 316 316 318 317 317 321 319 318 319 318 318 318 320 319 318 316 316 316 317 318 320 323 321 327 338 346 346 347 348 346 348 347 346 346 345 340 334 332 329 327 324 320 316 313 314 314 315 315 316 317 318 318 317 316 317 319 320 322 324 325 326 327 330 332 332 333 333 333 333 333 331 329 328 327 325 321 316 313 311 309 311 313 310 309 310 316 318 318 316 313 316 318 320 321 321 320
315 316 316 319 320 318 322 320 318 319 317 315 317 318 318 317 316 317 317 317 317 319 321 321 330 338 344 346 348 350 348 349 348 346 346 345 340 335 334 333 330 326 323 319 315 314 313 314 315 316 317 318 318 317 316 317 319 320 322 324 324 326 327 331 332 332 333 333 333 333 332 330 328 327 325 320 315 311 308 308 309 312 313 310 309 309 313 316 316 314 312 316 320 321 322 322 322
315 316 315 319 320 318 319 319 317 316 317 316 316 316 316 317 316 317 317 317 316 317 318 319 329 332 339 347 348 348 348 348 347 345 346 346 341 337 337 336 334 332 327 321 317 315 314 315 315 316 318 318 318 317 317 317 319 320 323 324 324 326 328 330 331 332 333 333 333 332 331 329 327 325 322 318 311 308 308 308 309 313 312 309 309 308 310 313 313 312 311 316 320 321 323 324 325
314 315 316 318 318 316 316 317 318 316 317 316 315 316 317 317 316 316 316 317 315 316 317 318 328 332 342 349 346 346 347 348 347 345 346 347 343 340 340 338 336 337 333 325 320 316 314 315 316 317 317 318 318 318 317 317 319 320 323 324 324 326 328 330 332 333 333 333 333 332 331 328 326 323 321 316 309 307 308 308 310 312 312 309 309 309 309 310 311 310 311 316 320 322 324 326 326
315 315 314 316 316 316 315 317 318 317 317 314 314 316 317 318 316 315 315 315 315 315 316 323 334 340 345 346 344 345 346 347 346 346 347 347 344 341 341 338 334 335 335 329 322 315 313 315 316 317 317 318 318 318 318 317 318 320 322 324 324 326 329 331 332 332 332 332 332 331 329 327 324 322 320 315 309 307 308 308 310 312 311 309 310 309 308 308 309 309 311 316 321 323 325 327 327
315 315 317 318 317 316 316 316 316 318 316 315 315 316 318 317 315 315 315 315 314 314 317 325 331 341 350 346 343 344 344 346 346 347 348 346 344 341 340 338 334 332 331 328 321 314 314 316 316 317 318 318 319 318 317 317 318 319 321 323 324 327 330 332 332 332 331 331 330 330 328 324 322 320 319 314 308 308 308 308 311 312 310 310 310 309 309 308 308 309 312 317 321 323 326 327 326
314 315 318 319 318 318 316 315 319 321 317 317 316 316 318 316 315 315 315 314 313 313 315 320 322 338 352 346 342 342 343 345 346 347 347 345 343 341 339 338 336 332 329 325 319 314 314 316 316 317 318 318 318 317 316 316 317 318 321 322 325 329 332 332 331 331 330 329 329 327 324 320 319 319 318 313 308 308 308 309 310 312 310 310 310 310 309 308 308 308 312 317 320 324 326 326 326
314 314 317 318 317 318 317 316 319 319 317 318 315 316 318 315 317 316 315 314 313 317 320 324 323 336 349 345 342 340 343 345 345 347 346 344 341 339 338 339 337 333 328 322 316 314 314 315 317 318 318 318 317 317 316 316 317 318 321 322 325 331 332 332 331 330 329 328 326 322 318 316 316 317 316 311 308 308 309 309 310 311 310 310 310 310 310 309 308 308 311 315 319 323 325 325 326
314 314 318 319 317 316 316 316 317 315 316 318 315 317 316 316 319 314 315 315 319 328 332 334 330 336 347 346 344 340 342 344 344 346 344 341 338 338 338 336 335 330 324 318 314 313 314 316 317 318 318 318 317 317 317 317 317 318 320 322 327 332 332 332 332 330 328 326 321 317 315 314 314 315 313 309 308 309 309 309 310 311 310 311 311 311 311 310 310 309 310 313 317 320 323 324 326
313 315 319 318 316 315 314 315 316 315 317 316 314 316 314 317 316 316 321 320 329 340 339 342 340 341 344 343 342 341 343 343 342 343 340 337 335 336 334 332 330 325 319 314 313 313 315 316 317 318 319 318 318 318 319 319 318 319 321 324 330 332 332 332 331 329 328 323 318 317 315 313 313 313 311 308 308 309 309 310 310 310 310 311 311 311 311 311 311 310 310 311 313 316 320 322 325
312 315 318 317 315 315 313 315 315 316 319 316 314 315 315 317 314 321 332 329 337 345 343 345 344 342 343 343 342 342 343 341 341 340 337 336 335 335 332 330 327 320 316 313 312 313 315 317 317 318 318 318 318 319 320 321 320 321 323 328 332 331 331 332 330 328 324 321 321 320 315 312 312 311 309 308 308 308 309 310 310 311 311 311 311 311 311 311 311 311 311 311 311 313 316 319 323
313 317 317 315 315 314 314 316 314 315 319 316 315 314 315 316 314 321 334 339 343 346 345 346 345 344 345 345 343 344 343 341 340 340 339 339 339 337 333 329 326 321 316 313 312 313 316 317 317 318 318 318 318 320 322 323 324 325 327 331 331 331 332 331 328 326 322 322 326 322 314 311 311 310 309 308 308 308 309 310 311 311 312 312 313 313 313 313 313 312 312 312 311 312 313 315 319
313 317 316 313 315 313 313 314 312 314 317 316 316 315 315 315 316 315 324 340 346 347 347 346 346 346 346 345 343 344 343 342 342 343 344 344 342 339 335 333 331 328 322 315 312 313 316 317 317 317 318 318 319 322 324 325 326 328 330 331 330 331 331 329 326 322 321 326 329 323 314 310 310 309 309 308 308 308 308 310 311 312 313 314 314 314 315 315 315 314 314 313 312 312 312 313 315
312 314 314 312 314 313 312 313 312 315 315 315 314 314 314 314 317 316 321 339 347 349 347 345 345 345 345 343 343 344 343 343 344 345 347 345 343 342 340 339 338 335 330 323 316 313 314 316 317 317 318 318 319 323 325 326 328 329 330 329 330 330 329 327 324 321 325 330 330 326 317 312 312 311 310 310 309 308 308 309 310 312 314 315 316 316 316 316 315 315 315 315 315 315 314 314 314
312 312 314 313 313 313 313 313 313 315 315 315 314 313 315 314 316 320 328 339 346 347 346 344 345 344 344 342 342 344 343 344 345 345 345 343 343 342 342 341 340 339 337 333 325 316 314 315 316 317 317 318 319 323 324 325 327 329 329 329 330 329 328 326 322 325 331 332 331 327 322 319 319 318 317 315 314 311 310 310 310 311 313 313 314 315 315 316 316 315 316 316 317 317 317 318 318
313 312 313 313 312 313 314 313 314 315 314 314 313 314 315 314 319 327 329 330 334 341 345 344 343 344 343 342 343 344 344 346 345 344 344 344 344 343 342 341 339 339 340 338 332 321 314 314 317 316 316 317 318 320 321 324 326 329 329 329 330 328 327 324 323 330 334 333 331 328 325 325 324 323 322 321 321 319 318 317 316 315 315 315 315 316 316 316 316 316 317 317 316 316 318 320 321
313 313 312 312 312 313 313 314 315 314 314 312 313 314 314 313 321 334 333 328 331 338 345 346 343 344 343 342 343 345 345 346 346 345 345 345 344 343 341 340 340 340 340 339 334 324 316 314 316 316 316 316 317 319 321 323 325 328 329 329 328 326 326 323 325 333 335 332 331 328 326 325 324 324 323 325 325 325 326 327 327 325 324 325 325 325 325 324 323 324 325 324 323 322 322 324 325
313 313 312 313 313 312 313 314 315 314 314 312 313 313 314 313 317 332 336 333 337 340 345 346 344 343 343 342 343 345 346 345 346 345 346 345 344 342 338 339 341 340 340 339 334 326 319 315 315 315 315 316 316 319 321 321 322 325 328 329 327 325 325 323 327 333 334 332 330 329 327 324 323 324 324 328 329 329 330 331 332 331 331 331 331 331 331 331 330 331 331 331 330 330 329 330 330
312 313 312 314 313 313 315 314 314 314 314 313 314 312 314 314 314 333 339 336 341 342 345 346 344 344 343 343 344 345 346 345 345 345 345 345 344 341 338 340 340 338 338 337 332 327 322 318 316 316 316 316 316 319 320 319 320 324 327 328 326 325 324 325 330 334 334 333 330 329 328 324 323 326 328 329 331 331 331 331 332 332 332 332 332 332 332 332 332 332 332 332 331 331 331 331 331
312 312 312 314 313 314 315 314 315 314 314 314 314 312 313 314 315 333 340 340 345 346 346 346 343 344 343 343 343 343 345 345 345 345 345 345 343 340 340 342 340 338 338 336 333 330 326 323 320 317 316 316 316 318 319 320 322 324 326 326 326 326 326 329 334 334 334 334 332 329 327 323 323 328 331 330 331 331 332 332 332 332 332 332 332 332 332 332 332 332 331 331 331 331 331 331 331
311 312 312 314 314 314 314 314 315 314 315 314 314 314 313 316 318 330 341 344 347 347 346 346 344 345 344 343 343 343 344 344 344 345 345 345 342 339 341 343 341 339 338 336 335 332 329 327 324 320 318 317 316 317 320 322 324 325 326 326 327 327 327 331 333 334 335 335 333 331 328 324 323 326 330 332 331 332 333 333 332 332 332 331 331 331 331 332 332 331 331 331 331 331 331 330 330
311 312 312 313 313 314 314 313 313 313 315 313 315 316 313 322 325 326 340 345 346 347 346 346 345 345 344 343 343 343 344 344 344 345 345 344 341 339 341 343 342 340 338 337 336 333 330 329 327 322 319 318 317 317 321 325 325 326 327 327 327 327 328 330 332 334 335 335 334 333 330 327 325 325 329 333 333 333 334 334 333 332 332 332 331 331 331 331 331 331 331 331 331 330 329 330 329
311 310 311 312 313 314 313 313 313 312 314 313 315 315 313 324 330 329 339 344 346 346 346 345 345 344 344 344 344 344 344 344 344 344 344 343 340 339 341 343 343 341 339 337 336 333 332 331 330 326 321 319 318 318 323 327 328 328 328 328 328 330 331 332 333 334 335 335 333 330 328 327 327 327 330 333 334 333 334 334 333 332 333 333 332 332 331 331 330 330 331 331 330 329 329 329 329
310 310 311 312 312 312 313 313 313 312 313 314 314 315 317 319 325 336 343 343 345 345 344 344 344 344 344 343 344 344 344 344 344 344 344 342 340 340 341 342 342 341 339 337 335 334 332 332 332 329 325 321 318 320 325 329 330 330 328 329 332 333 334 334 334 335 334 332 328 327 326 325 326 327 330 334 334 334 334 334 333 333 334 334 333 333 332 331 331 331 331 331 330 329 329 329 329
311 311 311 312 313 312 313 312 313 313 312 314 314 315 319 315 321 339 345 342 345 344 342 343 342 343 343 343 344 344 344 343 343 344 344 342 340 340 342 342 340 339 337 335 334 334 333 333 333 331 329 323 320 322 326 329 331 330 329 332 335 335 335 334 334 334 332 328 327 328 329 327 327 329 332 334 335 334 334 334 333 334 334 334 334 333 332 332 331 331 331 330 330 330 329 328 328
311 311 311 311 312 314 314 311 313 314 312 313 313 314 318 317 327 342 344 342 345 343 342 341 341 342 342 342 343 344 343 342 342 344 344 342 339 340 341 341 339 337 335 334 334 334 334 334 334 333 332 326 321 322 326 330 332 331 332 334 335 335 334 333 333 333 331 328 329 331 333 333 332 333 334 335 334 333 333 333 333 333 334 334 334 332 331 331 331 330 330 329 329 329 329 328 328
311 311 312 311 311 313 313 311 311 312 313 312 311 320 326 326 334 345 344 343 345 343 342 340 339 341 341 342 342 342 342 341 342 343 343 341 338 339 341 341 339 336 334 335 335 335 335 335 335 335 333 326 321 322 327 332 333 333 335 335 334 334 333 333 333 332 332 331 332 332 333 335 335 335 335 334 334 333 333 334 333 334 334 334 334 332 331 331 330 329 329 328 328 328 328 328 328
312 310 311 311 310 311 312 312 310 310 314 312 311 320 331 334 338 345 344 344 345 343 343 340 339 340 340 341 341 341 340 339 342 342 343 342 339 339 341 341 340 337 336 336 336 335 336 336 336 336 331 324 321 325 331 334 335 336 336 335 335 334 333 333 333 333 333 333 334 333 333 335 335 335 334 334 333 332 333 334 334 335 335 334 333 332 331 330 330 329 329 329 328 328 328 328 327
312 310 311 311 310 311 311 312 311 310 314 313 313 313 321 336 340 342 344 344 344 343 342 340 339 339 340 340 339 339 338 339 342 342 344 343 340 340 341 341 341 339 338 338 338 336 337 338 337 335 330 324 324 330 334 336 336 336 336 335 335 334 334 334 334 334 334 334 334 333 334 335 335 334 333 332 332 332 333 333 334 335 334 333 332 332 331 330 330 329 329 329 329 328 328 327 327
312 311 312 312 311 311 311 313 311 311 312 312 315 310 318 339 341 340 345 344 343 343 341 340 339 339 340 339 338 337 337 339 341 342 343 343 341 341 342 342 342 341 340 340 340 338 338 338 336 334 329 324 327 333 335 335 336 335 335 335 335 335 335 335 335 335 335 335 334 334 335 335 334 333 332 331 331 332 332 333 333 333 333 333 332 332 331 330 329 329 329 329 329 328 327 327 327
311 310 311 312 311 310 310 312 311 311 312 311 313 312 323 340 340 340 344 343 342 342 340 340 339 339 340 339 338 337 337 338 340 341 343 343 341 341 342 343 342 342 342 342 341 340 339 337 335 333 329 326 329 333 334 334 335 335 336 336 335 335 335 335 335 335 335 335 335 335 335 335 333 333 332 331 331 331 331 332 332 332 332 332 331 331 330 329 329 329 329 329 328 327 326 326 326
309 310 311 311 311 311 311 312 311 312 312 312 313 313 328 338 338 340 342 343 343 341 340 340 339 340 339 339 339 338 337 338 338 340 341 342 341 341 341 342 343 342 342 342 341 341 339 337 335 333 332 331 331 333 334 334 335 335 336 336 336 335 335 335 335 335 334 335 335 336 335 334 333 332 332 332 332 332 331 331 331 332 332 331 331 330 329 329 329 329 329 328 326 325 325 324 323
309 310 311 311 311 312 312 311 312 311 310 317 316 315 332 339 337 339 341 342 342 340 340 340 339 340 339 339 339 339 339 338 338 338 340 342 342 341 340 341 343 342 342 342 341 341 340 338 335 334 334 333 333 334 335 335 335 335 335 335 335 334 335 335 335 335 334 335 336 335 335 334 333 332 333 333 332 332 331 331 332 332 331 331 330 329 329 328 328 328 328 327 326 325 324 322 320
309 310 312 313 311 311 313 311 312 313 316 324 324 325 336 338 337 339 339 340 341 340 340 339 339 340 339 339 339 339 339 339 338 338 339 341 341 340 340 341 342 341 342 341 341 341 339 338 336 335 335 334 333 334 335 335 335 335 334 334 334 334 335 335 335 335 335 335 335 334 334 334 333 333 333 332 331 331 331 332 331 331 331 330 330 329 329 328 327 327 326 326 325 323 321 318 316
309 310 312 313 311 311 314 313 312 320 326 330 331 334 339 339 339 341 339 338 339 339 339 339 339 339 339 339 339 339 339 338 338 337 338 339 339 339 339 340 341 341 341 341 341 340 339 338 337 336 335 335 334 334 335 335 335 335 335 334 334 335 335 335 335 336 335 334 334 333 334 333 333 333 332 331 331 331 331 331 331 331 330 330 329 329 328 327 325 324 324 323 321 318 316 315 314
310 310 310 311 312 312 314 312 311 318 326 330 329 330 336 339 340 341 339 339 339 339 339 338 339 338 339 339 339 339 339 338 338 337 337 338 337 337 338 339 340 340 341 340 340 339 339 338 337 336 335 334 335 335 335 335 335 335 335 334 335 336 336 335 335 336 334 334 333 333 333 333 332 332 332 332 332 331 331 331 331 330 330 329 328 327 326 324 322 321 320 318 316 315 314 314 313
310 312 310 310 311 311 311 312 313 314 319 325 322 322 335 340 340 340 340 340 339 339 339 338 338 338 338 339 339 339 338 338 338 337 337 337 336 336 337 339 339 340 340 340 339 338 337 337 335 335 334 333 334 334 333 334 335 336 335 335 335 335 335 335 336 334 333 333 333 333 333 332 332 331 332 331 331 331 331 331 330 329 328 327 327 326 323 321 319 318 316 315 314 313 313 312 311
310 312 310 309 310 310 311 313 315 314 316 321 321 327 340 341 339 340 340 340 340 340 339 338 338 338 338 339 338 339 339 338 338 338 337 337 337 337 337 338 339 340 339 339 338 337 336 336 334 334 333 333 333 333 333 334 335 335 335 335 335 335 335 335 335 334 333 332 332 333 333 332 331 331 330 330 330 330 330 330 329 328 326 326 325 323 319 317 316 315 314 313 312 311 311 310 309
311 311 309 310 310 309 311 312 314 314 314 319 323 326 334 337 337 338 339 341 341 339 338 337 337 338 338 338 338 338 338 338 338 338 337 336 336 337 337 337 338 339 339 338 337 336 335 334 333 333 332 333 333 333 334 334 335 335 334 334 334 335 335 335 334 333 332 332 332 333 332 331 330 330 330 330 330 329 329 329 327 326 325 324 322 319 316 315 314 313 312 311 310 309 308 308 307
310 309 309 310 309 310 312 312 313 314 313 316 321 321 325 333 335 336 338 341 341 339 337 336 336 337 338 338 338 338 338 338 338 337 336 335 335 336 336 336 338 338 338 337 336 335 334 333 333 332 332 333 333 333 334 334 335 335 334 333 333 334 335 334 334 333 332 332 332 332 331 329 329 330 330 330 329 329 328 326 325 323 322 320 318 316 315 314 312 311 310 309 308 307 307 306 304
308 309 310 310 313 316 318 318 316 313 314 314 317 321 321 325 332 335 337 339 338 338 337 336 336 336 337 338 337 337 337 337 337 336 336 335 335 335 335 336 336 337 338 337 336 334 334 333 333 333 333 333 333 332 334 335 335 335 334 331 331 333 334 334 333 332 332 332 331 331 330 329 330 330 330 330 329 327 326 324 322 321 319 317 315 314 313 312 311 309 308 307 306 305 304 302 301
308 311 312 311 315 316 316 319 316 313 314 313 316 324 320 318 330 335 334 334 336 337 337 337 336 335 336 337 337 337 336 337 336 336 336 336 335 335 335 335 335 336 337 336 335 335 334 333 333 333 334 333 333 333 334 335 335 334 334 332 331 332 334 334 333 332 331 331 330 330 329 329 330 330 329 328 327 325 323 321 319 317 316 314 313 312 311 310 308 307 306 306 304 302 301 300 299
309 312 313 311 312 313 313 315 314 314 314 312 317 324 320 322 332 334 332 333 333 334 336 336 335 335 336 337 337 337 336 337 336 336 336 336 336 335 335 335 334 335 336 335 335 335 334 334 333 334 335 334 333 334 334 335 335 334 334 334 333 333 334 334 333 332 331 330 329 329 329 329 329 329 328 327 324 322 319 317 316 315 313 313 311 310 309 308 306 305 304 302 301 300 299 299 299
308 310 311 311 312 312 313 313 313 315 314 313 317 321 321 324 329 331 331 332 331 332 334 335 335 335 336 336 337 337 336 337 336 336 336 336 336 336 335 335 334 334 335 335 334 334 334 334 335 334 335 334 333 334 334 334 334 335 334 334 334 333 333 333 332 332 331 330 329 329 329 329 328 327 326 324 322 319 316 315 313 312 311 310 309 308 307 306 304 303 301 300 299 299 299 298 299
307 309 310 311 312 313 314 314 314 317 316 314 314 317 321 321 325 331 330 328 330 330 331 334 335 335 336 337 336 337 336 337 337 336 336 336 336 335 335 334 334 334 335 334 333 333 333 335 335 334 334 335 334 334 334 334 334 334 334 334 333 333 333 333 332 331 331 330 330 329 329 328 326 325 324 322 319 315 313 312 311 310 309 308 307 306 304 303 301 300 299 299 299 299 298 298 298
307 309 310 310 314 319 318 316 320 322 318 318 318 321 327 323 326 333 330 329 332 330 331 334 335 336 337 337 337 336 337 337 338 337 336 337 336 336 335 334 335 334 333 333 333 333 334 335 334 333 334 335 335 335 335 335 335 334 334 333 333 333 333 333 332 331 331 330 329 329 327 326 325 324 323 320 316 313 311 311 309 308 307 306 305 303 302 300 299 299 298 298 299 298 298 298 298
309 308 309 310 312 319 318 313 317 321 317 320 320 324 331 327 328 334 331 334 337 334 335 335 334 337 337 337 337 336 337 338 337 337 336 336 336 336 336 335 335 335 333 333 333 333 334 335 333 333 335 335 335 335 334 334 334 333 333 333 333 333 333 333 332 331 331 330 329 328 326 325 324 323 321 317 313 311 309 308 307 306 305 303 302 300 299 299 298 298 298 298 298 298 298 298 298
309 307 310 311 310 316 320 316 318 319 318 321 320 325 336 328 326 335 333 336 339 336 336 335 334 337 336 336 337 336 337 337 337 337 335 335 336 335 336 335 336 336 335 334 334 334 334 334 333 334 335 335 334 334 333 333 332 332 332 333 333 333 333 333 332 331 330 329 329 328 326 325 323 321 319 315 310 308 307 306 305 304 302 301 300 299 298 298 298 298 298 298 298 298 298 298 297
309 309 309 312 313 314 318 318 320 319 318 319 317 324 334 327 329 342 338 335 337 335 335 336 335 337 336 336 337 336 337 336 336 337 336 335 335 334 335 336 335 335 335 335 334 333 334 334 334 334 334 334 333 332 332 332 332 332 332 332 332 332 332 332 332 331 329 329 328 326 325 323 321 319 317 312 308 306 305 303 302 301 300 299 298 298 298 298 298 298 298 298 298 297 297 297 297
308 310 308 312 315 313 314 317 319 320 320 321 319 323 332 330 335 349 342 333 334 333 334 336 335 336 336 336 336 336 336 336 336 336 336 336 335 335 335 334 334 335 334 334 333 331 333 333 333 332 332 332 332 331 332 332 333 333 331 331 332 332 332 331 330 329 329 328 327 325 324 322 320 318 314 309 305 304 302 301 300 299 299 298 298 297 297 297 297 297 298 298 297 297 297 297 296
307 310 309 310 310 312 315 315 315 318 323 327 325 326 335 335 336 344 339 331 332 333 334 334 334 335 336 335 336 336 336 336 336 336 335 336 335 335 335 334 333 335 334 333 332 331 332 333 333 332 330 330 331 331 332 332 332 331 331 332 332 332 331 330 329 328 327 326 325 324 322 320 319 316 311 306 303 302 301 300 299 298 298 297 297 297 297 297 297 297 297 297 297 296 296 296 296
308 311 312 311 312 313 314 313 314 316 319 325 326 326 334 333 328 332 333 330 331 332 332 333 333 334 335 335 336 335 336 335 335 336 335 335 336 334 334 334 334 335 334 333 332 331 332 334 333 331 329 329 331 331 330 330 329 329 331 332 332 331 330 329 328 327 326 325 324 322 320 319 318 314 308 304 302 300 299 299 298 297 297 297 297 297 297 297 297 297 297 297 296 296 296 296 295
Wind_Speed
11 10 12 11 12 11 9 10 4 2 4 1 2 1 2 2 1 4 5 6 2 2 6 6 5 3 2 1 3 3 3 2 2 3 3 4 6 20 25 24 27 27 26 25 25 24 22 22 22 22 22 21 20 19 19 18 17 16 15 15 15 15 15 14 13 12 12 12 12 11 11 10 10 9 8 8 7 7 8 8 10 9 10 12 13 13 13 13 13 13 13 13 13 13 13 14 15
12 10 10 10 11 8 6 7 2 2 5 3 3 3 3 2 1 5 5 2 1 2 4 5 6 7 6 4 0 3 2 2 1 2 3 3 14 24 23 24 27 26 26 26 25 24 23 23 22 23 22 21 20 20 20 19 18 17 16 15 15 15 14 14 13 13 12 12 12 11 10 10 10 9 8 7 7 7 7 8 9 9 10 12 13 13 13 12 13 14 14 13 12 12 13 15 16
12 11 10 8 8 6 3 5 1 1 3 3 5 3 2 3 2 5 6 5 6 6 3 2 5 7 6 5 2 1 1 2 1 1 3 10 21 26 23 24 26 25 25 25 25 24 23 23 23 23 22 21 20 20 20 20 19 17 16 16 15 15 14 13 13 12 12 12 12 11 10 10 9 9 8 7 7 6 6 7 8 9 10 12 13 14 13 13 13 14 13 12 12 13 15 15 15
12 11 9 7 5 4 3 3 1 4 1 3 3 5 3 5 6 5 8 11 11 8 6 5 3 3 3 4 2 2 2 1 2 2 5 15 22 25 24 26 27 24 23 23 23 24 23 23 23 24 23 22 21 21 21 20 19 18 17 16 15 15 14 13 13 12 12 12 11 11 10 10 9 9 8 7 6 6 5 6 7 9 10 11 13 14 14 14 14 14 13 12 13 15 15 15 14
12 10 8 6 3 1 3 3 2 4 2 3 2 5 4 6 7 7 12 15 14 11 9 6 2 1 2 2 1 1 1 3 3 4 7 17 23 24 26 28 26 24 23 23 23 23 22 23 24 24 23 22 22 21 21 21 20 19 17 16 16 15 14 13 13 12 12 11 11 10 10 10 9 8 7 6 6 5 5 5 7 9 10 12 13 14 14 14 14 14 13 13 15 16 15 14 14
10 7 4 3 1 3 3 2 2 2 5 4 2 6 5 6 7 10 17 17 13 10 6 4 2 1 2 1 1 1 2 3 3 5 9 19 24 25 28 28 25 24 24 23 22 22 22 23 23 24 23 23 22 22 22 21 20 19 18 16 16 15 14 13 12 12 12 11 11 10 10 9 9 8 7 6 5 4 4 5 7 9 11 13 13 14 15 14 13 13 12 14 15 15 15 14 13
8 4 2 2 2 2 3 3 5 4 5 4 3 6 5 8 9 9 14 13 8 4 2 3 3 2 1 3 2 2 4 4 5 3 11 20 26 27 28 27 25 24 23 22 22 22 22 22 23 23 24 23 23 22 22 22 21 19 18 17 16 15 14 13 12 12 12 11 11 10 10 9 8 7 7 6 5 4 5 6 7 9 11 12 13 14 15 15 14 13 13 14 15 15 14 13 12
7 4 0 3 1 3 3 3 4 4 3 3 5 7 8 12 13 7 7 6 3 2 6 8 5 2 2 5 2 3 5 4 4 3 15 22 26 27 27 26 24 23 22 21 21 21 22 21 22 23 24 24 23 23 22 22 21 19 18 17 16 15 14 13 12 12 12 11 11 10 10 9 8 7 6 6 5 4 5 7 8 10 12 13 13 14 15 15 14 13 13 15 14 14 13 12 10
6 4 1 2 2 1 1 1 3 3 4 4 6 10 14 17 15 7 6 7 5 3 6 8 6 4 3 5 1 3 4 2 2 8 18 23 26 27 26 24 22 22 21 21 21 21 21 22 22 23 24 24 23 23 22 22 21 19 18 17 16 15 14 13 12 12 11 11 11 10 9 8 7 6 6 5 5 5 6 8 9 11 13 13 13 14 15 16 15 14 14 14 14 13 12 11 9
7 5 3 2 2 2 2 2 3 3 5 5 6 12 17 19 15 9 7 9 7 3 5 7 6 6 6 5 1 4 3 3 5 12 21 23 25 26 24 22 20 19 19 20 20 21 22 22 23 23 24 23 23 23 22 22 21 20 18 17 15 14 13 12 12 12 12 11 11 10 8 7 6 6 5 5 5 5 6 8 10 12 13 13 13 14 15 15 15 15 14 14 14 13 12 10 8
5 4 4 2 2 4 4 4 4 4 5 4 5 14 19 21 15 9 11 10 6 4 6 5 5 8 8 3 3 5 6 6 7 14 22 23 25 24 23 22 20 18 17 18 19 21 22 23 23 23 24 23 23 22 22 22 21 20 18 17 15 14 13 12 13 12 12 11 10 9 7 6 5 5 4 4 5 5 6 8 10 12 12 13 13 13 14 15 15 15 15 15 14 13 12 10 8
5 2 4 3 4 4 5 4 5 5 5 3 4 12 18 19 11 7 12 10 4 6 9 5 6 8 6 1 4 7 9 10 11 17 22 24 24 24 22 21 20 19 18 18 19 21 22 23 24 24 24 23 23 22 22 22 21 20 18 16 15 13 13 13 13 12 12 11 9 8 6 5 5 4 4 4 5 5 6 8 10 11 12 12 13 13 13 13 14 15 16 15 14 13 11 10 8
8 4 5 3 5 4 5 4 5 4 4 3 6 12 15 13 10 13 12 9 3 5 11 9 11 8 5 3 6 11 13 14 18 22 24 24 24 24 22 20 19 19 18 19 20 22 23 24 24 25 25 24 24 23 22 22 21 20 18 16 14 13 13 13 13 12 11 10 9 7 6 5 5 5 4 5 5 5 6 8 10 12 12 12 13 13 12 12 13 14 15 15 14 13 11 10 8
12 8 7 2 2 4 5 3 3 4 4 5 9 14 15 11 14 17 8 6 6 6 12 10 13 10 6 5 7 17 18 17 23 25 26 25 25 24 22 20 19 19 19 20 22 23 24 24 25 26 26 25 24 23 22 21 20 19 17 16 15 14 14 13 13 11 10 9 8 7 6 6 5 5 5 5 5 5 6 8 10 12 12 13 13 12 12 11 12 13 14 14 14 13 12 11 9
15 9 6 2 2 3 4 4 5 6 5 4 8 14 14 13 18 17 7 4 6 5 7 4 13 8 4 10 10 21 23 21 27 27 27 26 25 24 22 21 19 20 20 22 23 23 25 25 26 26 26 25 24 23 22 21 20 19 18 17 15 14 14 13 12 10 9 8 8 8 7 7 7 7 7 6 6 6 7 8 10 12 12 12 13 12 11 11 11 11 12 13 13 12 12 11 10
16 8 4 2 4 4 5 4 5 5 5 6 11 12 7 13 17 10 7 4 1 1 1 4 15 5 4 14 14 22 26 25 29 28 29 28 26 25 23 22 20 20 21 22 22 23 24 24 25 25 25 25 24 23 22 21 20 20 19 17 16 15 14 13 12 10 9 9 8 9 8 8 8 8 8 7 7 7 7 9 10 11 12 12 12 12 11 10 10 10 10 11 11 12 11 11 10
13 6 2 4 5 6 6 5 5 5 6 7 10 11 6 9 10 2 5 1 6 5 4 4 11 5 5 12 13 21 29 29 32 30 31 29 28 26 24 22 21 21 20 20 21 22 23 23 25 25 25 25 24 23 22 22 21 20 19 18 17 16 15 13 12 10 9 10 10 9 9 9 9 8 8 8 7 8 8 9 10 11 11 11 11 11 10 9 9 8 8 8 9 10 11 12 11
10 4 4 7 5 6 7 8 7 6 5 6 9 13 9 7 7 2 3 6 12 9 7 6 6 4 5 9 13 25 31 31 33 32 33 31 29 28 27 25 22 20 19 20 21 22 22 23 24 25 25 25 24 24 22 22 22 21 21 20 19 17 16 14 12 11 10 11 10 10 9 10 10 9 9 9 8 8 9 10 10 10 10 10 9 9 9 8 8 7 7 7 7 8 9 10 11
10 3 5 8 5 7 10 12 10 7 7 8 12 13 9 8 5 1 1 3 10 9 7 9 11 10 11 14 21 30 32 33 34 33 32 31 31 30 29 26 22 20 20 21 21 22 23 23 24 25 26 25 25 24 22 23 22 22 21 21 20 18 16 14 13 12 12 12 10 10 10 10 10 9 9 10 9 9 9 10 10 10 10 9 8 8 8 8 7 7 7 7 7 7 7 8 9
9 5 5 7 5 6 12 15 16 16 13 10 12 9 7 6 4 1 2 5 6 7 8 9 15 19 21 24 29 32 33 34 33 32 31 31 31 30 29 27 25 24 24 23 22 23 24 24 25 26 27 26 25 23 22 23 22 22 22 21 20 18 16 15 14 14 14 12 10 10 10 10 9 9 9 9 9 9 9 9 10 10 9 8 8 7 7 7 7 7 7 6 7 7 7 8 8
6 7 5 5 8 6 12 18 19 21 19 13 9 5 4 5 3 1 5 6 1 7 14 12 16 25 29 31 33 34 35 35 33 33 32 32 31 28 27 26 25 26 26 26 25 24 25 25 26 27 27 26 24 23 23 22 22 22 21 21 19 17 16 16 15 15 15 12 11 10 10 9 9 9 8 9 9 9 9 8 8 8 7 7 6 6 5 5 5 5 5 5 5 6 7 8 8
3 6 5 6 11 6 10 19 19 20 20 13 6 4 4 4 2 2 6 5 3 8 16 16 19 27 31 33 35 36 36 35 35 35 35 32 29 28 27 25 26 28 28 27 26 25 24 25 26 26 26 24 23 22 22 22 22 22 21 20 18 17 17 17 17 17 15 12 11 10 9 9 8 9 9 9 9 8 9 8 7 6 6 5 4 4 3 3 2 2 2 3 4 5 6 7 8
4 4 5 8 12 7 8 17 21 19 15 10 6 5 5 2 0 2 5 4 3 6 13 16 21 27 29 33 36 38 38 36 36 37 36 32 28 29 28 27 29 31 29 27 26 25 24 25 26 25 25 23 22 22 22 22 22 22 21 19 17 17 17 17 17 17 14 12 11 10 9 8 8 9 9 9 8 7 7 8 7 6 5 5 4 3 2 1 1 1 1 2 3 4 5 6 7
9 4 3 8 13 12 12 15 19 20 16 14 10 5 4 2 2 3 3 4 4 5 11 17 23 28 30 32 35 37 37 36 35 36 35 29 27 28 27 27 29 30 29 27 27 27 25 25 26 26 25 23 23 24 23 22 21 21 20 19 18 17 17 17 17 16 13 11 10 9 8 8 9 9 8 8 7 6 6 6 5 5 5 4 3 3 2 1 0 1 2 3 4 5 6 7 8
10 7 3 6 11 15 18 15 14 17 16 17 13 7 9 8 5 3 2 3 2 6 15 22 27 30 31 32 35 36 36 36 35 36 34 29 28 29 28 28 30 30 29 27 28 27 25 25 25 25 24 24 24 24 23 22 21 21 20 19 18 18 16 16 16 14 12 10 8 8 7 8 9 9 8 8 7 6 5 4 3 3 4 3 2 2 1 1 2 3 4 4 5 6 7 8 8
7 10 7 4 5 11 18 19 17 15 12 11 8 6 10 11 7 2 2 4 7 13 22 28 30 32 32 33 34 35 35 36 36 35 33 31 32 32 30 29 30 31 29 27 28 27 26 25 25 24 24 24 24 24 23 21 21 21 20 19 18 18 17 16 15 13 11 9 7 6 6 7 10 9 8 7 6 5 4 3 3 3 3 3 2 1 1 2 4 4 5 5 6 7 7 8 9
4 11 12 9 9 11 13 14 18 17 12 10 7 4 9 10 7 3 3 9 15 21 26 30 33 35 34 34 35 35 34 34 33 33 33 34 35 33 31 29 30 30 29 28 28 27 26 26 25 24 24 24 24 23 22 21 21 20 19 19 18 18 18 17 15 12 10 8 7 5 5 6 8 6 5 5 5 4 2 2 2 2 2 2 2 2 2 3 4 5 6 7 7 8 8 9 10
3 6 9 11 13 16 14 9 11 10 8 12 12 6 7 5 4 6 10 16 21 27 29 31 34 35 35 35 35 35 34 32 31 34 35 36 35 32 30 29 30 30 29 28 28 28 27 26 25 24 25 24 23 22 21 21 20 19 19 19 18 18 18 16 14 12 9 7 6 5 4 5 5 3 2 2 2 2 1 1 2 2 1 1 2 3 3 4 5 5 6 7 8 8 9 10 10
7 3 3 6 8 13 18 13 10 7 3 9 12 5 5 4 4 9 17 21 24 28 29 29 32 34 35 35 36 35 35 33 33 35 36 36 33 30 29 28 29 29 28 28 29 30 28 26 25 24 24 24 23 23 22 21 20 20 19 19 18 18 17 15 13 11 8 7 6 6 5 4 4 2 1 1 1 0 1 3 4 4 4 3 4 4 3 4 5 5 5 6 7 8 9 10 10
7 3 3 3 3 7 15 15 12 9 5 9 12 3 5 6 5 11 21 25 27 28 27 28 30 32 34 35 36 36 35 35 35 37 37 36 33 29 28 26 26 27 27 29 30 29 28 26 25 25 24 24 24 24 22 21 21 20 19 19 19 18 16 14 12 10 8 7 6 4 3 3 3 2 1 1 2 2 3 4 5 5 5 5 5 4 4 4 4 4 5 6 8 9 9 10 10
4 3 2 4 4 4 8 13 12 9 8 14 13 3 6 6 5 14 24 28 31 29 26 27 30 32 34 34 36 36 36 37 37 38 38 36 32 29 27 25 25 26 28 30 30 29 27 26 26 25 25 25 25 24 22 22 21 20 19 19 18 17 16 14 12 10 9 7 5 3 1 1 2 2 1 2 2 3 4 5 5 6 6 7 6 5 5 5 5 5 6 7 8 9 10 11 11
2 5 4 5 6 4 3 8 13 11 6 14 13 3 6 6 5 16 23 27 31 29 25 27 30 32 33 34 35 36 36 36 37 39 38 35 32 28 27 25 25 26 28 29 29 28 26 26 26 26 26 26 26 24 23 23 21 20 20 18 17 16 14 12 11 9 8 6 4 2 1 1 2 2 2 3 3 4 4 5 5 6 7 7 6 5 5 5 6 6 7 8 9 10 11 11 11
3 6 5 6 7 4 3 4 10 14 6 8 11 4 3 5 7 18 23 25 27 26 25 26 29 32 34 35 35 36 35 35 37 39 38 35 31 28 27 26 25 26 27 28 28 28 27 27 27 27 27 27 26 24 24 23 22 21 19 17 16 15 13 11 9 8 7 5 3 3 3 3 3 3 3 4 4 4 5 5 6 6 7 7 6 6 6 6 7 8 9 10 11 12 12 11 10
4 5 4 3 6 5 4 3 4 12 9 6 8 6 4 3 10 20 22 25 25 24 24 25 28 30 33 35 34 34 33 35 38 39 38 35 30 28 28 27 27 27 27 27 28 28 28 27 28 27 27 26 25 25 25 24 22 21 19 17 15 14 13 11 9 8 7 5 5 5 4 4 4 4 4 4 5 5 5 6 7 7 8 7 7 7 7 7 8 9 10 11 12 13 13 12 12
6 5 4 2 4 7 8 4 3 10 10 8 7 8 7 2 9 16 20 26 26 23 22 24 27 28 30 32 32 32 32 35 38 38 37 34 30 29 29 29 28 29 28 28 28 29 29 28 28 27 25 25 25 26 25 23 21 20 19 17 15 13 13 11 10 8 7 6 7 7 6 5 4 4 4 5 5 5 6 6 7 8 8 8 9 8 7 7 9 10 11 12 13 13 13 14 13
8 5 5 5 4 6 7 5 5 9 9 8 8 8 7 5 10 13 17 24 24 20 18 20 24 26 27 28 29 30 32 35 36 35 35 32 30 29 29 29 29 30 29 28 29 29 30 29 28 26 25 25 26 26 24 21 20 19 18 16 15 13 12 11 10 9 8 8 8 8 7 5 5 5 5 4 4 5 5 6 7 8 8 9 9 8 8 9 9 10 11 12 13 13 14 14 14
9 7 5 6 5 4 5 4 5 7 7 7 9 9 7 8 11 12 15 19 19 17 15 17 22 25 27 27 28 30 31 33 32 32 33 31 29 29 28 30 30 30 31 30 30 30 30 29 27 26 25 25 25 24 21 20 19 18 18 17 15 14 12 12 11 10 10 9 8 8 6 5 5 5 4 4 4 4 5 6 7 8 8 8 8 9 9 10 10 11 11 13 13 14 14 14 13
5 7 7 5 5 4 5 5 5 6 5 5 7 8 7 9 12 12 13 15 16 18 19 20 23 25 27 27 27 28 29 29 29 29 31 31 30 29 29 31 31 31 32 31 30 30 30 28 26 25 24 23 22 20 18 17 17 17 17 16 15 14 13 13 12 11 11 9 8 7 5 5 5 4 4 4 4 4 4 5 6 7 7 8 9 10 10 10 10 11 12 14 14 14 15 15 15
3 4 7 6 4 3 4 3 3 6 5 3 6 8 6 6 9 9 10 12 15 22 26 25 26 26 27 27 27 29 29 29 29 29 30 31 30 29 29 32 33 32 32 32 31 30 30 29 26 24 22 21 20 19 17 16 16 17 16 16 16 16 15 15 13 12 10 9 8 6 5 6 5 5 5 4 4 4 4 5 6 7 8 9 10 10 10 10 11 13 13 14 14 14 15 16 16
2 2 5 5 4 4 4 3 2 5 3 3 7 6 2 3 6 6 8 10 10 17 22 21 23 24 24 26 28 31 31 31 30 30 30 30 30 28 29 32 33 32 32 32 31 30 30 28 26 23 21 20 19 18 17 17 18 18 18 18 18 17 16 15 13 11 10 10 8 7 6 5 5 5 5 5 4 4 4 4 6 8 9 10 11 11 12 12 13 13 13 13 13 13 14 15 15
3 3 4 3 4 7 5 2 2 4 3 4 8 4 1 4 8 6 5 6 6 12 16 15 19 20 19 21 24 29 31 30 29 29 30 30 30 29 30 31 32 32 32 31 31 30 29 28 25 23 21 19 18 17 18 19 20 21 22 20 19 18 17 15 14 11 10 9 8 8 7 6 6 6 5 5 4 4 4 5 7 8 9 10 11 12 12 13 13 12 12 12 12 12 12 13 13
3 4 6 6 5 6 3 2 4 5 1 2 6 3 2 5 10 9 6 6 6 11 13 14 17 18 17 20 23 27 29 29 28 28 29 30 30 29 30 30 31 31 30 30 29 29 28 27 25 22 22 20 19 19 20 22 23 22 22 20 19 18 16 14 14 12 11 9 9 8 8 7 7 6 5 5 5 5 5 6 8 9 10 11 11 12 13 12 12 11 11 11 11 12 12 12 11
4 5 8 7 4 2 2 4 4 5 3 5 4 5 2 4 9 9 8 9 8 10 11 12 16 20 22 24 25 26 27 27 27 27 28 29 30 30 30 30 30 30 29 28 27 28 27 26 24 23 23 22 21 21 21 23 22 20 19 17 17 17 16 14 13 12 11 10 10 9 9 8 7 6 6 6 6 7 8 8 10 10 11 12 12 12 11 11 10 9 10 10 11 11 10 10 11
5 6 8 8 4 2 2 6 3 3 2 3 2 4 3 4 7 8 10 11 10 10 9 10 16 23 25 24 24 26 28 28 28 29 29 30 31 31 30 30 30 30 29 28 28 28 27 25 24 23 23 23 22 22 22 21 20 19 18 16 15 17 17 15 13 13 12 11 11 10 10 9 8 7 6 7 8 9 9 10 11 11 11 11 11 10 9 9 9 9 10 10 10 9 9 10 11
5 6 8 8 7 6 3 5 2 1 3 2 5 3 4 3 4 5 8 11 12 12 12 12 17 23 24 24 25 27 28 29 29 30 30 30 31 31 30 30 30 30 30 29 29 27 26 24 23 23 23 24 23 22 22 21 20 18 16 15 14 15 17 16 14 13 13 12 12 11 10 9 8 7 7 8 9 10 11 11 11 11 10 9 8 8 8 8 9 9 9 9 9 10 10 11 12
5 7 6 3 3 3 3 3 2 1 1 5 8 5 4 2 2 5 6 9 11 12 12 13 16 22 24 25 28 28 28 29 29 29 29 30 31 31 30 30 30 31 30 30 29 27 25 23 23 24 24 24 23 21 21 22 21 18 15 15 15 16 17 16 15 14 14 13 13 12 10 8 7 8 8 9 10 11 12 11 10 8 7 7 6 6 7 8 8 8 9 9 10 11 12 13 14
6 8 5 5 3 3 3 1 3 2 4 6 8 7 5 1 3 6 6 8 12 13 11 12 14 21 27 27 28 30 30 30 29 28 28 28 30 30 30 31 31 31 30 30 28 26 24 23 24 24 23 22 22 21 21 21 20 16 15 15 15 16 18 18 16 16 15 14 13 11 10 9 8 9 9 10 12 12 11 8 7 6 5 4 5 5 6 7 7 8 10 10 12 13 13 13 13
7 6 5 5 1 3 4 3 2 4 6 4 7 7 5 4 5 7 9 10 15 16 12 12 15 22 30 30 30 31 30 29 28 28 29 28 29 29 30 30 30 30 30 29 28 26 24 24 24 23 21 20 20 20 20 20 17 14 14 15 15 16 19 18 16 16 14 14 13 12 10 10 9 10 11 12 12 11 8 5 4 3 2 3 4 4 5 7 8 9 10 11 12 12 12 12 12
6 6 6 5 2 1 1 2 1 4 5 3 6 9 4 5 6 8 14 13 14 15 15 18 22 25 30 30 29 29 29 29 29 29 30 30 31 31 30 30 30 30 30 29 28 26 25 24 24 22 20 19 20 20 19 18 15 13 14 15 15 16 18 17 15 15 13 12 12 11 11 10 10 10 11 12 11 8 5 2 1 1 2 3 3 4 6 7 8 9 9 10 10 10 11 11 13
7 6 8 7 5 4 6 5 1 2 2 3 3 6 3 4 4 9 17 18 21 24 24 24 24 23 27 28 27 28 28 29 30 30 31 31 31 31 30 30 30 30 30 29 27 25 25 24 22 20 19 19 20 19 17 15 15 14 15 15 15 16 16 14 14 14 12 11 11 11 10 9 9 9 10 10 8 5 2 1 1 2 2 3 3 5 6 7 7 8 8 9 10 11 12 13 14
5 3 5 5 4 6 5 4 3 3 1 2 2 3 4 3 3 8 15 17 22 26 22 17 16 17 23 26 27 28 29 29 30 31 32 31 31 31 30 30 30 30 30 29 27 26 25 23 21 19 18 18 19 18 16 15 16 16 16 15 14 15 14 13 14 13 12 12 12 11 9 8 7 8 9 8 5 2 2 2 2 2 3 3 4 5 6 6 7 7 9 10 11 12 13 13 15
3 2 4 4 5 5 3 3 5 4 3 1 1 3 4 4 4 5 5 5 6 13 15 14 16 20 25 26 27 29 29 29 31 32 31 30 30 30 30 30 30 30 29 27 26 26 24 22 20 19 18 18 18 17 16 15 16 16 16 14 13 13 13 12 13 13 13 13 11 9 8 6 6 9 10 6 3 3 3 3 3 3 3 4 4 5 5 6 7 8 10 10 11 13 13 13 14
2 3 5 4 4 6 4 1 0 4 4 2 1 2 3 1 4 6 2 6 5 9 12 14 19 25 27 27 28 29 29 29 31 32 32 30 29 29 29 29 29 28 27 25 25 24 23 21 20 18 18 17 17 17 17 16 16 15 15 14 12 12 12 12 12 13 14 12 10 9 7 7 9 11 9 4 3 4 4 3 3 3 4 4 4 5 6 7 8 8 9 10 12 13 12 13 13
5 5 6 2 3 3 3 2 3 4 4 3 1 3 2 1 2 4 3 8 7 7 9 11 17 24 25 26 28 30 30 30 29 30 32 31 29 29 29 28 28 27 25 25 24 23 22 21 20 18 17 17 17 17 17 16 15 15 14 13 13 13 13 13 13 13 13 11 9 8 8 10 12 11 6 3 4 5 5 5 4 4 4 4 5 5 6 7 7 8 10 11 13 13 12 12 13
4 5 5 3 3 1 1 3 1 2 3 3 2 2 3 3 4 2 5 10 11 10 10 10 13 19 23 25 29 30 30 31 31 30 31 33 32 30 29 29 27 26 25 24 22 22 22 21 19 17 16 16 15 15 15 15 15 15 14 13 14 14 14 15 15 14 12 10 9 8 9 12 13 9 4 4 5 5 6 5 5 4 4 5 5 5 6 7 8 9 10 11 12 12 11 11 12
2 5 5 3 4 4 3 3 3 3 4 2 1 1 3 5 6 7 11 14 13 13 13 12 14 20 25 27 30 31 31 32 34 33 31 32 33 32 31 28 26 26 26 23 21 21 21 20 19 19 18 17 15 14 15 15 15 15 13 14 16 17 17 17 16 14 12 10 10 10 10 12 11 7 4 6 6 6 6 5 5 5 5 5 4 5 7 8 9 10 10 11 11 10 9 10 11
4 6 6 4 2 2 2 1 1 3 3 2 2 1 5 6 5 9 14 14 15 16 15 14 16 23 27 28 31 33 33 33 34 35 33 32 32 32 30 27 27 28 25 22 21 21 21 22 22 21 19 18 16 16 17 17 16 15 15 16 18 19 18 17 16 14 12 11 10 10 11 11 10 5 6 7 7 7 6 5 5 5 4 4 4 6 8 9 9 9 9 9 9 8 9 10 11
6 5 4 5 4 4 4 2 1 2 2 3 4 1 7 6 3 6 11 11 14 18 18 15 19 27 29 29 32 34 35 35 34 35 35 34 32 31 29 29 30 28 25 25 23 22 24 25 22 19 18 17 17 18 18 17 15 15 16 18 19 19 18 18 16 15 13 11 11 11 11 11 8 6 8 7 7 7 7 5 4 4 4 4 5 7 8 8 8 8 8 8 9 9 10 11 11
Wind_Direction
306 313 323 329 341 343 343 1 2 12 44 3 300 283 261 205 273 321 334 353 21 33 54 75 57 69 195 311 209 187 107 164 198 148 208 263 167 165 166 165 167 165 159 159 165 166 166 166 162 164 164 162 157 152 151 151 152 153 152 153 151 150 150 150 149 147 145 141 138 135 130 128 127 124 118 107 96 86 79 70 55 64 95 102 109 116 119 122 124 125 122 122 123 125 127 127 125
300 307 321 326 340 346 340 18 38 340 34 338 288 177 260 305 15 311 308 348 331 345 45 70 16 322 283 315 258 168 89 31 329 170 201 191 159 160 161 164 168 165 161 163 165 165 166 167 164 164 165 163 158 155 153 154 156 155 155 156 154 153 152 152 151 149 146 143 141 136 132 130 127 124 119 110 99 87 79 76 60 64 101 111 116 121 122 125 124 124 125 127 128 129 129 127 127
294 300 314 322 337 352 6 34 61 54 45 296 285 233 281 318 244 255 266 283 304 313 310 307 322 305 294 316 344 198 259 9 343 220 161 159 159 157 158 165 167 165 165 165 165 165 168 168 164 164 165 163 160 157 156 157 158 158 159 159 157 156 154 154 153 151 147 144 141 136 133 130 127 123 117 111 98 88 80 79 66 67 102 117 123 127 127 128 127 128 130 132 132 131 130 129 129
291 299 312 324 338 2 61 48 120 123 110 255 282 277 268 286 273 259 277 302 315 313 282 281 308 282 287 290 299 324 293 318 279 239 165 159 161 158 157 162 165 166 166 166 167 167 169 168 165 165 165 164 162 160 159 160 160 160 161 161 159 156 156 156 155 151 147 144 140 136 133 130 127 121 115 108 95 86 81 78 72 77 103 119 126 131 132 132 132 133 135 136 135 132 132 131 130
288 297 307 321 333 37 93 73 109 121 195 208 257 277 247 265 292 297 297 311 320 317 290 276 341 215 224 250 271 332 314 316 273 212 174 159 161 159 156 161 165 166 166 167 169 170 171 169 167 166 166 165 164 162 162 163 162 163 162 163 160 157 158 158 157 151 147 143 138 135 132 129 122 118 113 104 92 83 81 77 74 87 109 117 124 132 135 135 136 136 138 139 137 136 134 132 129
283 297 313 329 71 134 120 136 156 180 219 191 228 266 253 258 281 295 302 316 330 331 302 264 273 166 115 125 180 162 187 299 299 220 180 159 163 160 157 162 165 166 167 169 171 172 173 172 170 168 167 167 166 165 165 165 164 164 165 165 162 159 160 160 157 151 147 142 137 133 129 124 117 113 109 98 87 76 75 74 77 98 115 119 126 136 138 138 139 138 140 140 139 138 136 132 129
271 275 316 81 94 100 127 176 188 212 228 189 215 264 264 269 281 296 308 324 353 6 347 310 246 192 116 162 164 159 188 265 315 236 178 164 165 161 159 163 165 167 168 171 173 174 176 176 173 170 169 168 168 167 167 167 166 166 167 167 164 162 162 161 157 152 147 141 136 132 127 119 112 107 100 89 77 70 71 80 89 106 119 123 129 138 142 142 142 142 143 144 143 141 137 133 129
251 238 172 118 85 29 108 177 209 208 234 227 246 264 259 274 284 290 306 310 336 310 307 304 242 220 223 179 168 163 182 249 307 198 173 167 166 162 161 164 166 168 170 173 175 178 179 178 176 173 171 170 170 169 169 169 168 168 169 168 165 163 163 161 156 152 146 141 136 131 126 117 110 101 92 82 73 75 80 89 100 114 123 125 132 140 145 147 147 147 149 150 148 145 139 136 133
219 202 144 131 164 63 120 211 243 229 247 254 256 259 264 274 280 275 281 282 282 283 296 292 240 244 193 152 138 179 183 214 173 172 172 169 167 163 161 165 169 170 172 175 179 182 181 179 178 175 173 172 171 170 171 170 170 170 170 170 166 164 163 160 155 151 146 140 136 131 126 117 109 100 90 82 78 84 87 96 109 120 126 128 134 140 148 151 151 152 155 155 152 149 143 142 141
194 188 164 114 145 188 241 256 250 247 241 245 253 259 269 274 276 273 267 279 290 291 289 289 249 212 153 130 161 194 186 166 156 167 170 169 167 163 162 166 173 176 176 179 183 185 181 178 177 176 175 173 173 171 172 171 172 173 172 170 166 164 162 158 154 149 146 142 138 133 128 119 111 103 94 87 87 92 91 100 113 124 128 131 135 139 149 153 154 156 157 159 157 153 150 150 149
175 171 154 135 160 198 221 238 241 245 255 282 280 258 265 270 276 281 270 274 291 300 277 278 233 174 134 127 191 187 168 159 169 169 168 169 166 164 165 168 176 182 182 183 186 186 180 176 177 178 176 175 175 173 173 174 174 175 173 169 165 163 160 156 153 150 149 146 143 136 129 122 112 109 103 95 94 98 99 104 116 126 130 131 134 138 147 154 157 159 160 163 162 160 157 158 157
181 148 127 173 193 199 204 215 229 239 274 318 281 257 262 266 272 271 271 278 293 303 276 250 222 173 128 170 190 179 164 159 174 172 167 167 165 165 168 171 178 184 186 187 189 187 181 179 180 179 178 177 176 175 175 175 175 176 174 169 165 163 159 156 155 155 153 149 145 137 131 125 119 119 111 105 102 102 105 111 120 126 130 131 133 135 143 154 159 162 165 167 167 166 163 164 166
189 151 122 191 196 178 182 201 225 220 271 253 231 252 263 263 262 258 269 290 304 304 290 275 230 193 127 150 164 171 167 163 172 170 167 165 166 167 172 175 180 187 190 190 191 190 187 184 183 180 180 179 176 175 175 176 177 177 174 169 166 163 161 160 160 159 155 150 146 139 134 130 126 128 118 112 109 108 108 115 124 128 130 131 132 132 138 151 160 166 169 172 172 170 170 172 174
194 170 152 204 192 158 163 187 210 194 247 241 225 245 254 254 265 268 277 304 301 289 296 288 218 194 139 141 158 175 170 168 172 167 166 166 167 170 174 179 184 190 192 194 194 193 191 187 185 182 181 178 176 175 175 176 177 176 174 170 167 165 165 165 164 160 155 151 147 139 133 131 132 132 125 119 114 111 109 117 127 130 132 132 132 131 133 144 157 168 173 177 178 177 179 180 182
198 179 145 154 162 176 196 196 183 195 237 233 225 240 246 255 268 277 293 287 302 299 298 270 194 192 180 183 190 182 170 168 169 165 166 166 169 173 178 181 186 191 194 196 194 193 191 189 185 183 181 178 177 176 176 176 176 176 174 171 169 167 168 169 166 159 155 149 141 135 131 132 134 134 129 123 120 113 110 118 127 131 132 132 132 132 132 136 148 163 174 181 184 186 188 190 192
197 179 109 175 193 203 214 192 173 191 238 229 223 233 244 266 269 284 320 285 310 50 83 162 179 202 251 205 207 180 164 165 166 164 166 167 171 175 180 182 186 192 195 196 194 194 192 189 187 184 181 178 178 177 176 175 174 175 174 172 170 170 172 170 166 159 155 146 137 132 130 132 134 134 129 123 121 116 113 118 127 132 133 133 133 133 134 136 142 152 167 180 189 195 198 201 202
189 179 158 206 198 203 191 174 185 185 228 234 221 225 220 269 273 309 2 37 104 101 103 143 186 232 255 206 205 171 160 165 164 164 167 168 174 176 178 181 186 191 194 197 197 196 192 190 188 184 182 180 179 177 176 175 174 175 174 173 173 173 173 170 166 160 153 145 138 132 129 133 134 132 126 120 120 118 117 120 127 132 134 135 134 135 137 138 140 142 152 168 185 198 206 211 212
182 167 205 212 185 192 179 176 190 169 206 229 226 227 206 244 276 107 61 94 102 90 90 109 169 207 201 186 178 163 161 165 165 167 170 172 176 176 177 179 184 189 194 198 199 196 193 192 189 185 184 182 181 178 177 177 176 177 176 175 175 175 174 169 165 159 153 146 139 135 132 135 137 136 129 122 121 120 122 124 129 132 133 135 134 136 137 137 141 145 153 162 175 190 204 212 217
191 143 200 217 183 181 182 180 184 171 198 223 237 234 199 222 268 71 342 126 112 90 85 104 117 128 149 158 162 164 165 167 169 173 175 177 178 177 177 177 178 185 195 200 200 197 194 194 191 188 187 185 183 180 179 180 179 178 178 178 177 177 173 166 163 159 154 148 142 138 134 137 139 138 133 126 122 121 124 128 132 135 136 136 136 139 140 145 151 159 167 175 183 190 197 205 213
207 186 210 228 183 189 197 189 192 198 207 222 237 230 189 215 269 333 178 146 127 125 136 129 128 138 148 156 163 167 168 170 173 177 181 182 181 180 179 177 178 182 190 197 201 200 197 195 193 191 190 188 186 182 183 184 182 180 181 182 180 177 169 164 164 159 155 152 148 144 138 136 134 131 129 125 122 122 121 125 133 139 144 147 150 153 156 163 169 177 184 189 197 202 204 204 208
203 198 210 210 174 195 212 202 202 207 213 222 228 210 195 232 265 251 142 137 184 182 181 181 168 161 156 160 167 169 170 173 177 181 185 185 183 184 182 183 185 183 185 192 199 202 198 196 195 193 191 189 188 186 187 188 184 183 184 184 180 174 168 167 165 159 157 155 153 151 144 134 129 128 125 121 120 119 115 114 123 133 143 150 155 161 165 174 179 188 196 205 216 223 223 219 219
202 213 203 182 179 191 216 209 209 212 217 223 215 194 217 239 255 154 146 169 248 206 201 202 188 176 168 168 170 171 174 176 180 185 188 189 191 190 187 190 191 186 186 191 196 200 199 197 196 195 192 191 190 191 192 191 187 186 186 184 178 173 171 170 165 160 158 158 156 152 150 143 134 132 126 122 118 115 112 108 110 115 119 121 123 130 144 168 181 197 210 223 233 241 244 243 244
228 239 208 193 191 192 211 212 215 217 217 216 199 211 225 211 297 159 159 209 241 201 202 199 187 181 177 174 172 174 178 181 185 190 191 194 197 193 192 196 193 188 187 188 192 196 197 196 197 196 194 192 192 194 196 193 190 189 188 184 178 176 176 172 166 161 162 163 162 157 157 156 150 144 136 128 123 119 115 112 113 117 117 109 103 102 101 132 168 220 250 256 255 258 261 265 266
222 247 221 208 203 203 217 220 224 228 229 230 225 236 248 214 232 205 189 254 256 189 186 187 179 176 177 175 175 178 182 187 191 195 196 198 198 193 196 199 195 189 186 186 189 193 194 194 196 196 195 193 194 196 196 196 193 191 188 182 179 181 179 174 168 165 167 168 170 166 160 161 162 158 150 142 134 131 127 119 122 131 139 135 124 114 99 119 222 272 277 273 270 271 273 277 278
222 226 216 208 209 210 223 232 233 235 238 242 242 247 250 244 231 197 201 257 246 179 172 172 170 171 176 177 179 183 186 190 195 197 198 201 198 194 197 200 195 191 188 186 189 192 192 194 195 196 195 195 198 197 197 197 194 192 187 184 182 182 178 173 170 169 171 172 175 174 162 161 164 160 155 150 143 140 137 132 140 157 171 171 160 148 142 268 276 277 281 286 292 295 295 296 295
222 209 207 211 219 214 224 235 239 241 243 237 232 242 248 241 223 189 214 198 168 165 164 164 166 170 177 181 184 188 190 193 197 198 198 201 199 196 197 199 196 192 190 189 190 192 192 194 196 196 196 198 200 200 199 195 192 192 187 186 186 181 176 173 172 172 174 175 174 174 164 163 165 159 154 153 150 146 140 141 169 187 195 201 199 196 243 279 289 296 303 313 319 320 316 312 310
218 197 207 220 242 243 231 235 240 243 247 230 204 228 244 227 209 212 187 170 160 158 160 162 165 171 178 184 189 193 195 197 199 199 198 200 199 198 198 199 198 193 191 191 193 194 192 195 196 196 198 200 202 203 200 194 192 191 186 186 185 179 176 175 177 179 179 180 177 176 168 166 170 161 151 157 154 144 134 147 190 201 201 206 217 233 254 283 304 316 323 328 327 324 322 320 320
260 190 202 222 233 249 247 236 238 233 241 226 202 218 245 207 196 217 183 166 162 159 158 162 166 172 180 186 191 196 199 200 200 199 199 201 199 198 200 201 199 196 194 194 195 195 194 196 196 197 200 201 203 204 200 196 194 189 186 185 180 177 177 178 182 185 186 187 189 193 184 178 181 168 146 146 141 128 100 321 295 279 271 247 246 258 274 302 318 327 327 325 322 320 321 321 320
256 201 176 228 219 240 241 234 231 209 221 211 186 214 263 194 197 201 177 165 163 160 158 163 169 175 181 186 192 197 201 201 199 200 202 202 201 201 203 204 201 199 196 195 197 197 196 197 197 199 201 201 204 204 201 199 194 189 187 183 177 177 179 181 186 189 190 192 198 204 201 200 197 183 154 50 25 345 334 318 306 294 288 281 274 278 290 311 318 322 321 313 314 317 319 318 317
223 196 155 212 203 241 229 222 222 203 211 190 168 213 261 234 232 177 169 166 161 160 162 167 172 177 182 187 193 198 201 201 199 201 204 205 204 204 206 207 203 201 197 197 199 199 199 198 199 201 201 201 203 203 201 199 194 190 187 180 178 181 183 185 189 191 192 192 195 197 201 206 205 209 232 316 322 325 316 299 293 281 274 277 280 289 294 304 311 313 310 306 312 316 317 318 319
168 162 178 188 195 259 213 197 194 191 213 185 169 238 249 260 257 175 171 170 164 163 166 171 175 179 183 187 192 199 201 200 200 203 206 207 205 204 206 208 205 201 199 199 200 201 202 202 202 203 202 201 202 201 199 197 193 191 187 182 181 184 186 188 190 192 191 185 175 157 113 180 204 229 259 293 301 298 284 273 271 262 260 268 276 291 294 295 303 306 306 307 312 315 315 317 320
150 177 203 194 203 278 247 190 182 184 202 178 173 239 246 262 238 179 176 174 168 166 168 173 178 181 185 188 192 198 200 200 202 206 209 208 205 203 204 207 206 201 199 200 201 203 205 205 205 204 202 202 200 198 196 193 190 189 187 183 183 185 186 189 193 193 189 178 161 145 150 221 224 244 259 267 266 265 258 249 253 255 259 266 276 293 295 296 305 309 309 311 315 315 314 318 323
233 200 195 194 201 235 271 241 191 177 155 175 189 194 241 258 188 175 177 177 171 167 170 175 179 184 186 188 192 196 200 202 205 208 210 210 205 201 202 205 206 203 200 200 202 204 205 207 207 204 201 199 197 193 191 189 188 189 188 185 184 187 188 192 197 196 190 183 183 202 223 239 237 242 247 247 247 250 246 241 248 258 266 273 287 296 297 302 309 311 313 315 317 317 319 324 330
232 206 190 193 186 181 202 271 207 171 161 190 201 192 231 242 170 173 176 177 173 169 173 177 181 187 189 190 193 196 201 204 208 209 211 211 206 201 201 203 205 205 203 202 203 203 205 208 207 204 200 196 194 189 186 186 188 189 190 189 189 190 193 196 198 198 200 207 225 235 240 247 243 235 240 247 251 252 249 248 252 265 275 282 292 296 298 303 307 311 314 316 317 319 323 328 333
192 174 177 158 147 177 194 221 200 166 177 191 180 201 232 194 166 178 178 179 177 174 176 177 183 189 191 193 195 197 203 206 209 210 211 210 206 202 201 202 205 207 206 204 204 204 205 208 208 205 200 196 192 186 186 187 190 192 193 193 192 193 196 197 198 203 211 224 235 243 248 253 246 236 242 251 257 259 258 255 257 269 278 283 289 291 294 300 307 313 317 318 319 321 325 328 330
163 144 159 163 148 196 203 210 205 163 170 191 173 191 211 168 173 183 181 181 177 173 174 176 185 191 193 196 197 199 203 207 209 210 210 209 207 206 203 203 206 209 211 208 207 207 207 208 207 204 201 198 193 188 189 191 194 197 197 197 196 197 200 201 203 210 219 229 239 248 250 250 245 239 247 250 252 260 265 264 265 274 280 282 285 288 295 304 312 317 319 320 321 323 326 326 323
144 140 164 179 156 202 213 209 215 158 154 201 180 182 196 172 178 185 177 174 170 168 171 178 187 194 197 198 199 201 203 206 207 210 210 208 211 212 207 206 209 211 214 213 211 212 211 208 206 203 200 197 194 192 196 199 203 205 204 205 205 204 207 210 212 217 225 231 238 247 245 241 243 243 245 244 248 258 266 271 273 278 281 284 290 296 304 310 315 319 320 321 323 324 323 321 319
116 148 169 196 178 200 217 204 212 169 166 213 175 176 198 179 183 186 168 164 171 173 176 184 189 194 199 198 199 201 204 205 206 209 210 209 214 217 212 209 211 213 215 216 215 215 214 212 207 203 200 197 196 197 204 210 213 213 212 212 212 212 214 218 223 226 232 235 237 241 237 237 243 241 237 236 242 250 261 273 277 281 285 291 297 303 307 311 317 321 322 324 325 324 323 322 321
73 124 153 190 206 220 246 234 205 171 179 222 168 178 203 189 185 183 170 174 184 185 186 190 190 192 198 198 197 200 203 205 206 208 209 210 216 217 212 210 212 215 217 217 218 218 217 214 209 205 203 202 201 204 211 216 217 217 219 221 220 219 218 223 230 233 236 236 235 234 233 238 241 236 232 229 233 243 257 270 278 285 290 297 303 308 315 320 323 323 323 323 324 325 323 321 320
123 105 142 181 199 182 218 257 184 145 152 162 149 165 193 157 170 175 183 188 189 191 192 195 195 195 199 200 200 201 202 204 205 208 210 211 215 214 210 209 213 216 217 217 218 219 218 215 211 210 209 208 208 211 216 218 217 217 219 221 221 220 220 224 225 225 231 232 227 227 229 230 229 228 230 233 242 245 250 267 280 290 297 303 311 318 322 323 322 320 320 322 324 324 321 321 323
190 166 161 178 183 175 185 230 146 94 49 123 120 96 317 172 178 176 172 175 177 183 184 192 201 203 204 204 205 205 205 205 205 208 210 211 212 211 209 211 214 216 216 217 217 218 218 216 215 214 212 211 213 217 219 221 222 220 217 215 214 213 213 219 219 212 220 225 221 223 222 220 222 221 222 232 243 243 251 275 286 295 302 308 315 320 321 320 319 321 323 327 329 328 332 336 338
216 217 208 195 169 161 144 97 121 105 22 204 128 115 271 196 191 189 169 165 174 180 183 193 200 204 207 207 208 208 208 208 208 210 210 209 209 209 209 211 214 216 216 216 216 218 218 216 215 213 211 210 213 218 221 226 228 225 222 218 211 205 199 206 216 214 212 215 217 224 222 217 218 217 220 231 241 255 272 285 291 299 306 312 318 319 320 321 323 329 334 338 341 343 351 353 353
220 228 206 195 161 123 86 81 117 145 208 236 160 152 212 208 202 197 178 176 184 186 193 198 196 203 209 209 208 206 206 206 208 213 213 211 210 209 209 211 213 215 216 215 215 216 216 215 214 214 214 212 214 218 224 230 230 230 233 230 225 223 211 200 207 213 210 212 218 222 220 213 213 220 232 249 262 277 287 292 297 304 312 318 320 319 321 327 334 343 349 352 355 357 2 1 5
223 223 176 175 193 227 128 90 107 176 194 243 192 135 139 198 201 189 179 186 197 197 202 204 200 204 209 210 208 206 206 207 209 213 215 215 213 211 209 211 213 214 215 215 215 216 216 217 219 218 216 216 218 220 225 232 234 236 241 241 242 240 226 208 202 207 210 217 222 219 216 214 218 231 248 268 279 288 294 298 305 311 317 319 319 321 328 339 349 358 359 360 1 3 10 10 12
220 205 160 168 197 204 151 92 99 137 99 222 244 169 148 236 214 171 181 196 201 204 209 212 208 206 205 206 207 207 208 210 212 214 216 216 215 213 211 212 213 213 214 214 214 217 220 220 219 216 215 218 221 223 227 234 236 235 235 238 241 234 222 212 205 207 211 217 219 215 214 218 230 247 263 274 282 292 298 304 311 316 318 318 319 330 343 353 358 0 359 2 7 10 16 15 11
194 164 130 122 174 165 134 127 155 99 115 220 226 185 154 277 251 171 188 203 201 206 212 214 211 206 204 204 205 207 208 211 213 215 216 217 215 214 214 213 213 213 213 213 215 219 220 219 216 214 215 220 225 227 231 234 231 225 220 224 230 227 219 212 206 208 211 213 215 215 218 228 242 255 266 277 289 298 303 309 315 318 318 319 331 347 355 359 357 358 2 9 14 14 14 11 8
137 132 101 64 52 54 73 86 106 138 248 228 201 181 158 233 239 193 191 195 194 202 210 208 206 206 206 205 203 205 207 209 211 212 214 216 215 215 215 213 214 213 213 214 217 219 219 218 217 215 217 221 226 230 231 233 227 217 215 218 224 228 222 216 211 211 211 212 214 218 224 234 246 259 272 286 298 304 307 312 317 318 319 331 354 1 1 359 360 7 13 15 13 10 10 9 11
132 133 122 97 46 21 42 7 46 176 240 245 182 165 157 209 231 204 203 206 200 203 204 195 199 206 205 202 202 203 204 205 207 207 209 212 212 212 212 213 214 213 213 216 218 219 219 219 219 217 218 221 226 229 230 230 223 211 212 216 219 225 223 220 217 215 216 218 217 220 231 242 255 271 284 298 305 307 310 313 313 316 337 5 13 7 5 6 11 16 14 11 9 9 15 17 21
145 134 135 137 162 70 147 237 200 197 252 281 169 146 148 233 234 199 202 212 212 210 207 198 199 202 198 197 198 199 199 201 203 203 204 207 208 208 209 212 215 214 214 217 218 218 218 220 221 220 220 221 225 231 228 221 216 209 210 212 213 218 219 219 220 219 220 223 225 231 242 253 267 280 295 306 307 304 301 291 289 18 30 27 20 15 16 17 17 14 10 10 14 20 26 28 31
170 159 160 165 161 157 193 214 182 193 269 313 192 161 175 261 255 199 196 206 213 213 212 206 205 200 190 190 192 193 195 198 200 201 201 203 206 208 208 210 213 214 215 218 218 218 218 220 221 221 220 218 221 229 226 211 205 208 212 213 212 214 216 217 219 220 221 225 229 235 242 255 271 287 304 308 300 289 266 199 132 91 68 47 33 27 22 20 15 10 14 21 26 33 34 33 35
183 161 139 156 165 165 187 193 171 193 204 353 276 199 183 193 241 213 196 207 215 213 211 205 200 191 181 183 187 188 192 194 195 196 198 202 205 207 208 210 213 213 215 218 217 217 219 220 218 215 215 214 216 223 222 208 201 206 214 214 212 214 216 215 213 214 221 226 227 231 243 261 279 302 313 306 285 244 192 155 122 98 78 56 44 34 23 20 18 18 28 33 35 39 37 35 37
205 113 115 176 183 146 118 152 171 164 128 81 226 221 210 192 271 278 197 191 199 190 187 176 170 170 171 179 185 186 190 190 188 189 194 199 203 206 209 211 213 213 214 216 217 219 221 220 215 210 210 212 214 217 217 210 205 207 212 212 213 218 219 218 215 213 217 220 224 237 254 272 293 313 315 298 248 185 164 144 121 103 78 61 50 38 28 27 28 30 36 38 41 43 38 36 38
168 145 170 195 155 121 104 143 95 99 135 223 216 228 296 287 293 313 128 130 122 149 162 159 159 163 169 179 183 185 188 186 185 189 194 197 200 204 207 210 213 214 214 215 216 219 219 219 214 208 207 209 209 212 211 211 210 207 207 208 215 223 223 223 222 219 217 219 231 249 264 283 299 310 310 276 201 169 154 138 122 103 84 68 53 44 37 36 35 37 43 44 46 45 37 37 40
143 189 193 144 93 86 96 127 8 63 157 258 260 185 254 183 234 313 109 148 163 161 157 154 158 164 171 179 181 183 186 183 182 190 197 201 202 203 206 210 213 214 214 213 214 216 216 218 217 210 207 204 204 207 206 210 213 209 208 208 213 219 220 221 222 221 223 229 243 255 270 288 299 308 301 226 181 162 147 134 122 103 88 74 59 50 44 41 42 45 49 48 48 45 37 39 43
159 182 183 139 152 201 94 138 126 107 163 271 314 209 221 196 210 232 170 179 183 171 162 158 164 170 174 177 178 180 182 180 180 185 193 199 203 205 206 206 208 212 213 210 211 214 212 213 212 209 208 206 207 209 207 211 213 211 212 210 211 217 219 221 223 223 229 239 249 259 275 288 301 311 283 197 171 156 142 130 122 106 90 78 64 56 51 50 51 51 50 49 49 46 38 42 46
119 150 170 168 167 177 158 149 164 151 159 217 287 318 251 231 216 191 192 195 183 170 173 177 180 179 176 175 176 178 178 178 180 184 188 191 195 200 201 202 207 208 208 207 208 211 210 208 207 208 209 209 214 215 210 210 210 210 215 213 211 214 216 219 221 223 232 240 247 260 274 286 303 305 234 182 161 150 139 130 123 105 89 78 67 67 64 58 54 52 51 51 52 50 43 46 49
150 163 177 181 147 126 147 147 146 138 138 180 178 299 260 245 209 191 198 195 180 176 183 186 184 181 177 175 175 177 179 179 179 183 187 189 189 192 196 203 206 203 205 209 206 206 208 202 201 208 211 208 210 211 206 207 207 208 216 216 213 213 215 220 222 226 233 237 246 263 272 285 297 273 197 169 155 146 138 132 122 104 92 84 79 77 72 62 53 52 55 56 57 56 52 53 54
151 164 185 178 140 113 146 202 290 117 126 171 148 223 267 256 231 214 207 194 186 186 186 185 183 179 176 175 175 177 180 181 180 183 187 190 190 192 196 199 200 202 205 201 198 204 202 193 195 208 212 205 206 208 207 208 210 211 215 217 216 217 220 223 225 228 229 234 252 263 268 282 284 227 179 158 152 147 139 136 126 112 108 101 92 83 74 64 54 54 62 68 70 66 60 59 56